Location: Alexandria
(38.8050°N, 77.0470°W)
Time: 06:40:36
(UTC-04:00)

Tiangong 2 - Visible Passes

Search period start: 24 June 2018 00:00
Search period end: 04 July 2018 00:00
Orbit: 385 x 396 km, 42.8° (Epoch: 24 June)

Date Brightness Start Highest point End Pass type
(mag) Time Alt. Az. Time Alt. Az. Time Alt. Az.
25 Jun 3.0 04:51:35 10° SSW 04:54:04 21° SE 04:56:35 10° E visible
26 Jun 3.6 03:56:35 12° SE 03:56:45 12° SE 03:58:03 10° ESE visible
27 Jun 1.9 04:33:56 20° SSW 04:35:45 40° SSE 04:38:46 10° E visible
28 Jun 2.9 03:38:55 22° SE 03:38:55 22° SE 03:40:58 10° E visible
28 Jun 1.3 05:11:51 10° WSW 05:15:02 71° NNW 05:18:15 10° ENE visible
29 Jun 1.0 04:16:12 32° WSW 04:17:31 76° SSE 04:20:44 10° ENE visible
30 Jun 2.5 03:21:08 31° ESE 03:21:08 31° ESE 03:23:09 10° ENE visible
30 Jun 1.9 04:53:51 10° W 04:56:58 48° NNW 05:00:06 10° ENE visible
01 Jul 1.3 03:58:23 38° W 03:59:25 66° NNW 04:02:37 10° ENE visible
02 Jul 2.7 03:03:18 31° ENE 03:03:18 31° ENE 03:05:07 10° ENE visible
02 Jul 2.3 04:35:56 10° WNW 04:38:59 39° N 04:42:02 10° ENE visible
03 Jul 2.0 03:40:34 36° NW 03:41:24 46° N 03:44:30 10° ENE visible
03 Jul 2.4 05:15:34 10° WNW 05:18:37 41° N 05:21:42 10° E visible
